Regional Weather Roundup
Issued by NWS

Home | Current Version | Previous Version | Graphics & Text | Print | Product List | Glossary On
Versions: 1 2 3 4 5 6 7 8 9 10 11 12 13 14 15 16 17 18 19 20 21 22 23 24 25 26 27 28 29 30 31 32 33 34 35 36 37 38 39 40 41 42 43 44 45 46 47 48 49 50
000
ASUS43 KMKX 062321
RWRWI

WISCONSIN REGIONAL WEATHER ROUNDUP
NATIONAL WEATHER SERVICE MILWAUKEE/SULLIVAN WI
600 PM CDT WED MAY 06 2015

NOTE: "FAIR" INDICATES FEW OR NO CLOUDS BELOW 12,000 FEET WITH NO
SIGNIFICANT WEATHER AND/OR OBSTRUCTIONS TO VISIBILITY.

WIZ001-002-006>008-014>016-023>028-070000-
NORTHWEST WISCONSIN

CITY           SKY/WX    TMP DP  RH WIND       PRES   REMARKS
SUPERIOR ARPT  CLOUDY    48  35  61 E12G17    29.98F
ASHLAND        MOSUNNY   58  46  64 N8        30.00F
HAYWARD        PTSUNNY   74  56  53 SE10G18   29.96F
SIREN          PTSUNNY   75  54  47 SE14G22   29.91F
CUMBERLAND     PTSUNNY   72  55  56 SE16G25   29.93F
RICE LAKE      PTSUNNY   74  56  52 SE16      29.95F
CHETEK         PTSUNNY   74  58  58 E16G23    29.94F
LADYSMITH      PTSUNNY   72  58  61 SE8       30.01F
EAU CLAIRE     CLOUDY    76  55  48 SE16G25   29.93F
MENOMONIE      PTSUNNY   75  55  49 SE17G24   29.93S
NEW RICHMOND   RAIN      72  55  54 SE14G22   29.93R
OSCEOLA        CLOUDY    74  58  57 SE14      29.93R
$$

WIZ003>005-009-010-017-018-070000-
NORTH CENTRAL WISCONSIN

CITY           SKY/WX    TMP DP  RH WIND       PRES   REMARKS
MANITOWISH WTR PTSUNNY   69  58  69 SE12      30.04S
ARBOR VITAE    PTSUNNY   69  59  69 S10       30.05S
WOODRUFF       PTSUNNY   69  59  69 S10       30.05S
RHINELANDER    PTSUNNY   69  56  62 SE10      30.07F
EAGLE RIVER    PTSUNNY   69  52  53 SE6       30.05F
LAND O LAKES   PTSUNNY   72  53  52 S9        30.06F
PHILLIPS       PTSUNNY   68  58  71 SE9       30.03S
TOMAHAWK       PTSUNNY   67  58  73 CALM      30.05F
MEDFORD        PTSUNNY   71  58  64 SE6G16    30.02F
MERRILL        PTSUNNY   69  59  69 SE8       30.05F
$$

WIZ029-030-035-036-043>047-070000-
CENTRAL WISCONSIN

CITY           SKY/WX    TMP DP  RH WIND       PRES   REMARKS
WAUSAU         MOSUNNY   73  57  57 SE13      30.03F
MOSINEE        SUNNY     72  57  60 SE12G17   30.06S
MARSHFIELD     PTSUNNY   74  58  57 SE13      30.02S
STEVENS POINT  MOSUNNY   69  57  65 SE10      30.06S
WAUPACA        MOSUNNY   73  58  59 SE13      30.08S
WAUTOMA        MOSUNNY   74  58  57 SE9       30.06S
WISC RAPIDS    PTSUNNY   74  57  55 SE13G20   30.04S
CAMP DOUGLAS   PTSUNNY   77  63  61 E10G20    29.99F
$$

WIZ011>013-019>022-031-037>040-048>050-070000-
NORTHEAST WISCONSIN

CITY           SKY/WX    TMP DP  RH WIND       PRES   REMARKS
ANTIGO         MOSUNNY   67  58  72 SE10      30.08S
SHAWANO        MOSUNNY   70  57  63 SE12      30.09S
OCONTO         CLOUDY    60  51  73 E8        30.11S
STURGEON BAY   MOSUNNY   55  46  71 SE8       30.14S
GREEN BAY      MOSUNNY   69  57  65 SE9       30.09F
MANITOWOC        N/A    N/A N/A N/A MISG        N/A
APPLETON       MOSUNNY   66  55  68 SE10      30.09F
CLINTONVILLE   MOSUNNY   68  55  64 SE9       30.07F
OSHKOSH        SUNNY     67  58  72 E7        30.07F
$$

WIZ032>034-041-042-053>061-070000-
SOUTHWEST WISCONSIN

CITY           SKY/WX    TMP DP  RH WIND       PRES   REMARKS
LA CROSSE      PTSUNNY   79  57  46 SE15G24   29.93F HX  80
SPARTA         PTSUNNY   77  55  46 SE13G18   29.98S
VIROQUA        PTSUNNY   75  58  53 SE17G24   29.98F
BOSCOBEL       MOSUNNY   80  57  45 VRB7      29.97F HX  80
PRAIRIE DU CHI CLOUDY    78  53  42 SE12      29.95S
PLATTEVILLE    MOSUNNY   78  56  46 SE14      30.00S
$$

WIZ056-057-062-063-064-067-068-070000-
SOUTH CENTRAL WISCONSIN

CITY           SKY/WX    TMP DP  RH WIND       PRES   REMARKS
REEDSBURG      MOSUNNY   74  63  67 SE7       30.01F
BARABOO/DELLS  NOT AVBL
LONE ROCK      MOSUNNY   77  61  57 E15       29.99F
MINERAL POINT  MOSUNNY   79  55  44 SE13G21   30.01S
MADISON        PTSUNNY   76  61  59 SE13      30.03F
MIDDLETON      MOSUNNY   76  61  58 SE9       30.03F
WATERTOWN      MOSUNNY   69  59  69 E9        30.06S
MONROE         MOSUNNY   77  59  53 SE10      30.03F
JANESVILLE     MOSUNNY   75  63  64 E12       30.04F
$$

WIZ051-052-058>065-066-070>072-070000-
SOUTHEAST WISCONSIN

CITY           SKY/WX    TMP DP  RH WIND       PRES   REMARKS
MILWAUKEE      PTSUNNY   59  52  77 E8        30.10F HAZE
WAUKESHA       PTSUNNY   63  54  72 E9        30.10F
MILWAUKEE/TIMM SUNNY     61  52  72 SE7       30.10F
RACINE         MOSUNNY   56  50  80 NE8       30.11F
BURLINGTON     SUNNY     65  57  74 E7        30.09S
KENOSHA        MOSUNNY   60  54  80 E9        30.09F
FOND DU LAC    MOSUNNY   71  58  63 SE15      30.07F
SHEBOYGAN      SUNNY     61  54  77 SE10      30.11F
WEST BEND      MOSUNNY   63  54  72 E8        30.10S
JUNEAU         MOSUNNY   68  59  71 E12       30.08S
$$

LSZ147-162-070000-
LAKE SUPERIOR

STATION/POSITION TIME  TEMP    WIND        PRES    WAVE
                       AIR SEA DIR/SP/G            HT/PER
                 (UTC) (F)     (DEG/KT/KT) (MB)    (FT/S)
W MID LAKE BUOY  2250   39 36   50/ 12/ 12 1017.2F   1
DEVILS ISLAND    2300   42      50/  6/  7 1016.9F
PORT WING        2200   41      20/ 18/ 20 1015.9F
SAXON HARBOR     2200   49     310/  3/  3 1015.9F
$$

LMZ867-665-643>646-070000-
LAKE MICHIGAN

STATION/POSITION TIME  TEMP    WIND        PRES    WAVE
                       AIR SEA DIR/SP/G            HT/PER
                 (UTC) (F)     (DEG/KT/KT) (MB)    (FT/S)
CHAMBERS ISLAND  2200   53      30/  6/  8 1020.0F
NORTHPORT PIER   2200   47     130/  4/  6 1021.0F
SISTER BAY       2202   62      80/ 10/ 12   N/A
KEWAUNEE LAKESHO 2200   46      80/  1/  5 1019.8F
SHEBOYGAN LAKESH 2300   44      80/  6/  7 1020.6F
PORT WASHINGTON  2240   50      90/  2/  3 1020.7F
ATWATER BUOY     2300   43      50/  6/  8 1020.5F
MILWAUKEE LAKESH 2300   44      50/  9/  9   N/A
KENOSHA   LAKESH 2300   47      20/  5/  5 1019.0F
$$

TC  - TEMPERATURE IN CELSIUS
VSB - VISIBILITY IN STATUTE MILES
WCI - WIND CHILL INDEX
HX  - HEAT INDEX



USA.gov is the U.S. government's official web portal to all federal, state and local government web resources and services.